Location: Belloy
(55.7522°N, 118.2333°W)
Time: 09:16:35
(UTC+00:00)

N. Korean satellite - Visible Passes

Search period start: 30 November 2021 00:00
Search period end: 10 December 2021 00:00
Orbit: 447 x 495 km, 97.3° (Epoch: 29 November)

Date Brightness Start Highest point End Pass type
(mag) Time Alt. Az. Time Alt. Az. Time Alt. Az.
30 Nov 6.8 00:09:31 10° S 00:13:05 76° WSW 00:16:37 10° NNW visible
30 Nov 7.6 13:00:15 10° NNE 13:03:33 43° E 13:06:49 10° S visible
30 Nov 7.7 14:33:55 10° NNW 14:36:32 21° WNW 14:39:08 10° WSW visible
01 Dec 9.6 01:15:41 10° SW 01:18:07 17° W 01:20:32 10° NW visible
01 Dec 8.9 12:32:08 10° NE 12:34:55 23° E 12:37:39 10° SSE visible
01 Dec 6.9 14:05:03 10° N 14:08:14 36° WNW 14:11:22 10° SW visible
02 Dec 8.6 00:46:13 10° SSW 00:49:25 31° W 00:52:36 10° NNW visible
02 Dec 9.8 12:04:39 10° ENE 12:06:08 12° E 12:07:36 10° ESE visible
02 Dec 6.2 13:36:23 10° N 13:39:49 74° WNW 13:43:11 10° SSW visible
02 Dec 8.5 15:11:36 10° NW 15:12:23 11° NW 15:13:08 10° WNW visible
03 Dec 7.1 00:17:19 10° S 00:20:49 63° WSW 00:24:18 10° NNW visible
03 Dec 7.1 13:07:55 10° NNE 13:11:16 53° E 13:14:36 10° S visible
03 Dec 7.9 14:41:48 10° NNW 14:44:10 18° WNW 14:46:31 10° WSW visible
04 Dec 9.7 01:23:51 10° SW 01:25:53 15° W 01:27:55 10° NW visible
04 Dec 8.6 12:39:40 10° NE 12:42:38 27° E 12:45:33 10° SSE visible
04 Dec 7.1 14:12:48 10° N 14:15:51 31° WNW 14:18:53 10° SW visible
05 Dec 8.9 00:54:06 10° SSW 00:57:08 26° W 01:00:08 10° NW visible
05 Dec 9.6 12:11:53 10° NE 12:13:51 14° E 12:15:48 10° SE visible
05 Dec 6.3 13:44:04 10° N 13:47:26 60° WNW 13:50:46 10° SSW visible
06 Dec 7.5 00:25:02 10° S 00:28:28 51° W 00:31:52 10° NNW visible
06 Dec 6.7 13:15:30 10° NNE 13:18:54 65° ESE 13:22:16 10° S visible
06 Dec 8.1 14:49:37 10° NNW 14:51:42 15° WNW 14:53:47 10° W visible
07 Dec 9.9 01:32:05 10° WSW 01:33:34 12° W 01:35:03 10° WNW visible
07 Dec 8.2 12:47:09 10° NNE 12:50:15 32° E 12:53:19 10° SSE visible
07 Dec 7.4 14:20:29 10° N 14:23:23 26° WNW 14:26:16 10° WSW visible
08 Dec 9.2 01:01:57 10° SSW 01:04:45 22° W 01:07:33 10° NW visible
08 Dec 9.3 12:19:10 10° NE 12:21:29 17° E 12:23:47 10° SE visible
08 Dec 6.5 13:51:39 10° N 13:54:57 50° WNW 13:58:15 10° SW visible
09 Dec 7.9 00:32:42 10° S 00:36:02 42° W 00:39:20 10° NNW visible
09 Dec 6.4 13:23:00 10° NNE 13:26:25 80° ESE 13:29:49 10° SSW visible
09 Dec 8.2 14:57:25 10° NNW 14:59:08 13° WNW 15:00:51 10° W visible
